Theta_e
348 352 362 362 364 365 364 367 365 364 363 362 362 362 363 364 363 363 361 361 363 364 364 363 362 361 361 360 360 362 361 362 361 360 360 360 360 359 359 360 361 355 359
352 353 362 362 363 364 363 366 365 363 362 363 363 364 364 364 363 361 359 359 361 361 361 361 360 360 359 359 359 360 360 360 360 359 359 359 358 358 358 360 362 358 359
352 354 356 362 363 363 364 365 364 364 364 364 365 364 364 363 360 359 358 357 357 358 359 360 359 358 359 359 360 359 359 358 358 359 359 352 355 357 357 357 358 357 357
354 354 355 362 363 362 362 363 363 364 364 364 364 363 362 361 359 357 358 357 354 356 357 357 357 358 358 358 358 359 358 357 356 356 351 350 353 355 356 356 356 356 357
354 354 358 362 362 361 361 362 362 362 363 363 362 361 360 359 359 360 360 359 355 354 355 356 356 358 357 357 358 358 357 355 353 352 345 347 351 356 357 356 356 356 357
353 354 359 361 361 361 360 360 361 361 361 360 360 359 358 358 359 360 360 359 357 354 355 356 357 357 355 355 354 355 355 353 353 342 347 349 350 355 355 354 355 355 355
351 354 357 361 361 360 358 359 360 360 359 359 358 357 358 358 360 360 359 358 356 355 354 355 356 357 355 355 354 352 353 353 348 340 345 348 353 357 355 354 354 354 354
350 354 358 360 361 360 360 360 360 360 360 359 359 358 358 358 359 359 360 358 356 356 355 356 356 356 355 355 353 354 351 349 339 341 342 344 352 353 352 353 353 353 353
351 353 353 357 359 360 360 360 361 360 360 360 360 360 359 358 359 359 358 359 357 356 356 355 355 354 353 352 352 354 351 349 345 342 340 343 349 350 351 351 352 352 352
347 351 354 355 353 352 355 359 359 360 360 360 360 359 359 358 358 358 358 359 359 358 357 355 353 352 351 351 351 352 355 352 349 338 342 348 350 349 350 350 350 351 351
343 347 351 349 351 349 348 355 358 358 358 359 358 359 356 350 353 354 357 359 358 357 355 354 352 351 351 352 353 353 354 354 351 342 342 352 350 349 349 349 350 350 349
341 343 347 347 348 349 348 352 350 352 352 351 352 354 351 353 352 354 356 355 355 354 353 352 351 352 351 351 353 355 356 357 350 346 344 351 350 350 349 349 348 347 346
343 344 346 348 351 349 347 350 348 348 349 351 353 354 353 351 353 351 352 351 352 353 350 350 351 350 350 353 356 353 355 356 355 350 347 351 350 350 350 349 348 347 347
341 346 348 349 351 351 349 349 349 347 348 350 352 356 353 351 351 348 347 348 351 350 351 352 350 352 353 353 352 351 352 355 356 354 352 352 352 351 351 350 351 350 349
341 346 348 350 352 353 352 351 350 349 348 349 352 355 352 350 349 348 347 347 347 348 349 349 349 350 350 350 350 351 351 352 354 355 355 352 354 353 353 352 352 351 351
343 346 349 350 353 354 353 353 351 351 350 349 351 353 354 351 350 347 346 346 345 346 347 348 347 347 346 346 347 351 351 352 354 355 354 353 354 354 355 354 353 353 352
344 348 350 350 352 355 354 354 353 352 350 348 348 354 354 354 353 352 346 345 345 346 347 349 349 350 348 346 346 347 350 352 352 355 355 354 354 354 355 357 357 356 354
345 348 351 351 351 352 353 353 351 351 351 350 346 350 354 353 354 352 347 347 348 349 349 349 349 347 347 347 346 344 344 349 353 354 354 353 352 352 354 356 357 357 356
346 348 350 351 351 355 354 354 353 352 350 350 349 346 350 353 352 353 349 348 351 349 348 348 348 349 348 348 346 347 349 350 352 352 353 354 354 353 352 354 354 355 355
350 349 351 350 352 353 352 352 349 347 348 348 348 347 349 346 346 350 350 351 352 348 347 348 352 350 350 352 346 347 349 351 351 352 352 352 353 353 353 354 356 355 353
352 351 351 351 353 352 348 347 345 343 345 345 345 347 346 345 345 347 345 347 351 350 351 354 351 349 347 347 347 344 349 350 350 354 350 357 352 351 352 353 353 354 353
349 351 352 352 353 352 348 348 345 343 345 347 349 351 351 350 352 351 350 348 352 351 345 346 347 342 341 343 334 332 327 329 333 341 342 343 346 355 350 353 353 357 357
343 346 349 352 352 353 351 347 348 350 352 348 348 345 345 346 346 345 347 349 343 340 338 338 341 342 337 335 335 328 325 323 328 337 337 338 341 340 348 351 350 352 354
337 338 340 340 347 351 352 348 349 345 343 346 345 342 340 341 339 338 341 342 342 339 338 338 338 337 338 333 333 337 337 335 326 323 333 336 340 342 344 346 350 345 347
338 338 337 338 342 346 349 351 347 348 345 340 337 333 330 329 328 327 328 328 329 330 331 332 333 333 333 331 331 331 330 330 330 329 324 327 334 338 340 342 342 343 341
337 337 337 337 337 340 343 345 347 342 337 332 329 327 324 323 323 323 324 325 325 326 326 325 326 325 324 329 330 330 327 327 328 330 325 328 328 334 337 342 342 341 342
Wind_Speed
16 18 13 13 13 11 14 15 17 16 16 16 16 15 15 15 14 13 13 12 11 12 14 15 15 14 14 13 13 12 13 13 14 14 14 14 14 12 11 12 12 15 13
19 20 14 12 14 14 14 14 16 16 16 16 16 15 14 14 15 13 13 12 11 13 14 14 15 14 13 12 12 14 13 13 13 14 14 14 12 11 9 11 14 15 13
20 19 17 12 13 15 14 15 16 16 15 15 15 15 14 14 14 13 12 12 11 11 12 13 13 13 13 13 13 13 13 13 10 10 12 11 12 10 11 13 14 13 13
19 18 17 13 13 15 15 15 16 16 15 15 14 14 14 14 13 14 12 12 12 11 11 13 13 14 13 13 13 13 12 10 8 9 6 8 12 10 11 12 12 12 12
19 18 18 14 13 15 15 14 15 15 15 15 14 14 14 14 12 11 11 12 12 11 12 12 14 14 12 12 11 11 10 7 6 12 7 8 10 11 10 10 12 10 7
19 18 19 15 14 14 15 15 14 15 15 14 14 13 13 13 12 11 10 10 11 11 11 12 13 13 13 11 9 9 8 4 11 8 8 7 10 10 9 8 10 11 10
17 17 18 15 14 15 16 15 14 13 13 13 13 13 12 12 11 10 10 9 11 11 12 11 12 11 10 9 8 8 5 6 12 7 8 0 13 7 10 10 8 9 9
16 17 18 16 14 14 14 14 14 13 13 12 12 12 12 12 10 9 10 10 9 10 10 10 10 9 9 7 5 5 6 8 6 6 6 6 10 7 8 9 8 8 9
15 18 13 17 15 13 13 14 14 13 13 12 11 11 11 11 10 9 7 9 10 8 8 8 8 8 6 5 4 5 6 8 7 3 4 6 9 7 8 7 8 8 8
15 17 13 16 16 15 14 14 13 13 12 12 12 11 11 11 9 7 7 7 8 9 8 7 6 5 3 3 3 4 6 8 10 6 4 9 11 8 7 7 7 7 7
14 16 16 16 16 15 14 13 12 12 12 11 11 10 10 10 11 11 10 10 8 7 8 7 6 4 3 6 5 3 7 6 3 2 3 14 9 8 8 7 6 7 6
15 16 16 15 15 14 11 13 12 12 11 10 10 11 9 7 7 2 10 7 7 6 6 5 4 4 8 7 8 9 8 1 4 3 2 13 9 8 8 8 7 7 7
16 9 14 12 12 13 11 10 7 7 7 7 9 9 7 6 6 6 7 8 8 9 8 9 9 8 8 4 1 3 4 3 2 3 9 13 10 9 9 9 9 8 7
16 13 11 13 11 11 8 8 7 7 7 7 8 9 6 5 6 6 5 7 6 7 5 5 5 4 4 5 6 6 5 5 2 3 7 12 10 10 10 10 10 10 10
16 16 10 8 10 11 9 8 7 6 6 7 8 9 7 7 6 6 5 5 6 5 5 5 6 4 6 7 6 6 7 6 5 4 3 14 12 12 12 12 12 12 11
13 16 13 11 12 12 9 9 7 6 6 6 7 7 8 6 5 5 5 6 5 5 6 6 6 5 6 7 6 6 7 7 6 6 6 7 13 13 13 14 14 14 14
11 13 15 12 11 13 12 10 7 7 6 6 6 7 8 7 6 6 6 5 5 5 7 5 6 5 6 7 7 8 7 8 7 7 7 7 11 15 13 14 14 15 15
13 13 13 13 12 12 10 8 7 6 7 6 6 7 9 8 7 5 6 5 5 5 5 5 5 6 6 6 6 7 7 6 8 8 8 8 8 8 16 17 16 17 16
13 14 14 14 15 15 11 8 8 8 7 6 6 6 7 8 7 6 6 5 5 6 6 6 6 5 7 7 7 7 6 7 7 8 9 9 10 10 8 14 21 18 19
13 13 14 13 13 14 10 9 8 7 7 6 6 7 7 7 9 7 7 6 6 6 7 6 6 8 5 7 9 8 8 7 7 8 9 9 11 12 11 13 9 12 20
11 12 13 13 13 11 10 10 9 8 7 6 6 5 6 6 6 6 7 6 6 6 7 8 7 3 3 1 4 6 5 6 9 9 8 7 11 12 13 12 10 10 10
10 11 12 13 13 12 9 8 7 7 7 8 6 5 5 5 4 4 5 6 1 0 4 5 7 2 2 2 1 4 8 6 7 9 5 6 11 8 12 12 14 13 13
7 8 9 11 13 12 11 8 7 5 3 6 7 4 5 5 6 7 2 3 3 5 4 6 7 11 6 3 5 5 4 11 5 6 8 8 9 10 11 14 12 14 13
7 7 6 7 9 11 12 11 11 8 7 4 3 5 4 5 6 4 3 1 2 3 3 2 2 4 4 5 3 8 10 10 9 9 7 8 8 11 12 12 12 9 10
9 8 7 8 8 8 10 11 10 11 5 6 5 6 7 6 7 6 5 5 5 4 4 2 1 4 2 2 2 1 6 8 10 8 12 11 12 10 11 12 14 10 9
8 9 8 8 7 7 7 8 9 9 8 8 6 5 4 4 4 5 5 4 4 4 3 2 2 4 4 3 4 5 6 4 5 8 9 14 13 13 12 11 12 11 10
Wind_Direction
152 139 153 149 140 136 139 138 139 138 136 136 135 133 133 129 121 119 117 111 107 104 104 112 110 106 105 106 106 99 102 102 102 100 100 99 100 104 109 113 138 105 102
146 144 149 147 141 136 132 131 133 132 135 136 135 133 130 125 121 121 118 112 109 110 111 112 111 111 110 107 111 105 104 101 105 110 113 101 97 97 86 75 78 100 103
142 143 155 147 141 130 127 125 124 126 130 130 131 130 128 124 123 121 117 114 115 116 119 119 116 113 109 107 111 104 107 107 112 148 174 100 104 106 98 89 94 102 105
139 146 151 149 142 134 130 123 121 123 124 126 128 131 128 126 127 125 121 120 120 124 125 123 118 115 109 108 109 108 109 114 145 209 167 134 112 102 107 107 111 107 107
146 151 136 148 143 140 136 127 125 126 127 129 132 133 131 129 127 126 124 124 123 124 124 124 122 117 111 107 104 104 113 123 215 232 94 121 121 109 110 117 127 128 123
150 148 135 144 145 143 141 135 132 132 131 132 135 136 135 131 129 126 125 122 123 125 128 127 125 119 117 113 110 113 118 178 250 84 65 92 91 110 116 90 89 92 98
152 140 151 147 147 148 148 146 140 135 133 133 136 135 132 128 127 126 125 124 127 130 132 134 131 127 125 120 111 125 136 239 277 117 120 89 100 125 115 110 109 110 107
149 143 143 149 149 150 151 151 145 142 138 137 137 138 134 132 131 132 136 130 130 134 136 138 137 138 142 144 141 148 166 244 221 87 131 124 104 127 121 115 119 114 114
153 144 163 159 153 153 153 151 147 145 144 142 139 134 137 136 137 135 132 135 140 138 140 144 147 152 164 180 180 181 192 249 287 127 142 129 130 144 139 138 130 129 130
159 145 166 168 166 168 159 155 151 148 147 142 139 138 140 139 139 140 150 155 151 146 147 149 152 160 182 206 206 214 212 237 255 135 209 92 138 159 160 155 159 148 145
166 152 177 172 167 177 160 151 155 153 148 145 147 144 159 172 171 162 93 136 155 157 158 163 165 178 219 220 215 201 209 209 272 187 189 121 151 172 172 172 183 172 176
173 166 174 177 167 174 157 156 176 161 176 182 179 171 197 161 173 201 125 150 160 167 171 179 194 212 230 237 166 178 228 216 183 182 101 134 170 191 188 186 190 198 186
165 184 172 177 171 173 173 169 175 171 169 179 182 184 208 174 168 205 163 178 182 187 194 193 189 225 229 289 256 269 355 278 168 239 113 148 181 199 202 201 198 203 204
168 168 187 168 178 187 177 189 177 185 174 180 182 190 179 205 182 205 205 191 198 176 213 228 215 251 278 267 287 310 279 273 186 259 128 155 188 208 207 213 214 214 207
169 164 186 171 187 188 194 192 190 197 194 184 179 189 193 206 193 197 198 212 203 196 211 221 245 245 239 237 241 258 272 283 274 264 277 161 191 211 218 217 218 223 222
169 163 170 182 182 206 201 196 191 199 178 205 190 185 212 219 190 206 205 219 217 223 229 234 234 257 257 269 259 261 271 267 255 263 250 183 189 210 223 226 224 223 225
173 161 164 183 184 226 194 193 206 192 193 197 208 191 211 217 197 262 231 227 226 232 251 230 263 243 268 265 267 273 261 259 259 257 251 252 180 204 220 230 233 230 229
176 175 168 181 184 209 205 197 202 208 214 204 206 198 203 217 231 222 247 242 247 253 245 254 261 271 259 258 269 273 278 256 265 257 250 259 247 255 197 217 228 233 229
183 179 182 182 182 198 188 194 226 212 218 208 208 209 198 224 233 239 252 252 250 260 259 266 256 253 277 273 270 251 271 279 268 253 262 256 260 265 260 202 214 223 231
185 185 191 187 189 193 192 208 204 204 210 215 212 215 200 221 227 234 244 259 267 266 270 267 302 311 310 310 310 328 311 293 281 283 274 261 256 254 250 261 238 226 228
187 192 194 192 186 191 195 193 199 201 201 208 218 210 218 224 236 242 246 246 241 267 304 306 292 299 96 47 330 355 333 323 310 306 286 274 291 266 248 253 248 252 231
185 196 195 198 191 199 195 203 203 200 189 198 180 181 206 214 199 226 267 250 266 330 316 315 287 281 202 179 117 0 305 297 284 274 266 290 291 268 268 256 263 259 252
177 185 197 200 193 198 206 194 193 173 192 189 181 160 78 78 75 59 89 155 184 206 200 244 228 246 246 210 177 178 221 247 295 220 246 249 258 276 265 258 257 268 270
161 171 177 179 197 197 195 198 199 206 196 201 149 106 116 82 82 79 91 107 131 67 27 323 305 274 259 228 218 226 254 281 266 266 238 245 243 250 259 255 249 243 260
156 155 162 173 185 196 201 221 201 227 101 125 135 125 100 85 75 73 65 65 65 63 62 49 290 241 245 280 244 236 239 251 250 255 270 264 262 238 258 260 258 241 233
157 149 147 162 164 175 187 198 207 179 156 146 138 131 119 113 107 95 104 103 103 107 99 84 46 45 21 306 266 255 246 258 257 247 245 259 267 278 282 256 262 257 242